This is the latest recevied weather packets stored in our database for station/object YN3ZBQ-13. If no packets are shown the sender has not sent any weather packets the latest 1 day(s).
| Time | Temp. | Humidity | Pressure | Rain* | Wind** | Luminosity | Snow |
|---|---|---|---|---|---|---|---|
| 1778090125 | 32.78° C | 43% | 1010 hPa | 0 mm | - | - | - |
| 1778088924 | 33.89° C | 43% | 1011 hPa | 0 mm | - | - | - |
| 1778088324 | 33.89° C | 43% | 1011 hPa | 0 mm | - | - | - |
| 1778084121 | 31.11° C | 51% | 1011 hPa | 0 mm | - | - | - |
| 1778082320 | 31.67° C | 51% | 1011 hPa | 0 mm | - | - | - |
| 1778078718 | 29.44° C | 62% | 1011 hPa | 0 mm | - | - | - |
| 1778078118 | 29.44° C | 62% | 1011 hPa | 0 mm | - | - | - |
| 1778076917 | 28.33° C | 87% | 1011 hPa | 0 mm | - | - | - |
| 1778074516 | 26.11° C | 89% | 1011 hPa | 0 mm | - | - | - |
| 1778073315 | 26.67° C | 89% | 1011 hPa | 0 mm | - | - | - |
| 1778071514 | 24.44° C | 94% | 1011 hPa | 0 mm | - | - | - |
| 1778069713 | 23.89° C | 74% | 1011 hPa | 0 mm | - | - | - |
| 1778068512 | 23.89° C | 74% | 1011 hPa | 0 mm | - | - | - |
| 1778066711 | 24.44° C | 75% | 1011 hPa | 0 mm | - | - | - |
| 1778063109 | 23.33° C | 74% | 1010 hPa | 0 mm | - | - | - |
| 1778062508 | 23.89° C | 74% | 1010 hPa | 0 mm | - | - | - |
| 1778061908 | 24.44° C | 74% | 1010 hPa | 0 mm | - | - | - |
| 1778060107 | 24.44° C | 74% | 1010 hPa | 0 mm | - | - | - |
| 1778059507 | 25° C | 74% | 1010 hPa | 0 mm | - | - | - |
| 1778057706 | 23.89° C | 74% | 1010 hPa | 0 mm | - | - | - |
| 1778056505 | 25° C | 74% | 1010 hPa | 0 mm | - | - | - |
| 1778055905 | 25.56° C | 74% | 1011 hPa | 0 mm | - | - | - |
| 1778055305 | 23.33° C | 74% | 1011 hPa | 0 mm | - | - | - |
| 1778053504 | 25° C | 74% | 1011 hPa | 0 mm | - | - | - |
| 1778052303 | 25.56° C | 74% | 1011 hPa | 0 mm | - | - | - |
* Rain latest hour (hover to see other rain measurements)
** Current wind speed in m/s (hover to see current wind gust speed)